Time,TemperatureF,DewpointF,PressureIn,WindDirection,WindDirectionDegrees,WindSpeedMPH,WindSpeedGustMPH,Humidity,HourlyPrecipIn,Conditions,Clouds,dailyrainin,SoftwareType,DateUTC
2013-11-13 00:00:00,-999.0,-99.9,-100.00,North,-999,3.0,9.0,50,-99.99,,,-99.99,,2013-11-13 05:00:00,
2013-11-13 00:34:00,-999.0,-99.9,-100.00,North,-999,3.0,9.0,50,-99.99,,,-99.99,,2013-11-13 05:34:00,
2013-11-13 00:43:00,-999.0,-99.9,-100.00,North,-999,3.0,9.0,50,-99.99,,,-99.99,,2013-11-13 05:43:00,
2013-11-13 00:54:00,-999.0,-99.9,-100.00,North,-999,3.0,9.0,50,-99.99,,,-99.99,,2013-11-13 05:54:00,
2013-11-13 03:00:00,-999.0,-99.9,-100.00,North,-999,2.0,5.0,53,-99.99,,,-99.99,,2013-11-13 08:00:00,
2013-11-13 03:32:00,-999.0,-99.9,-100.00,North,-999,2.0,5.0,53,-99.99,,,-99.99,,2013-11-13 08:32:00,
2013-11-13 03:42:00,-999.0,-99.9,-100.00,North,-999,2.0,5.0,53,-99.99,,,-99.99,,2013-11-13 08:42:00,
2013-11-13 03:52:00,-999.0,-99.9,-100.00,North,-999,2.0,5.0,53,-99.99,,,-99.99,,2013-11-13 08:52:00,
2013-11-13 06:00:00,-999.0,-99.9,-100.00,North,-999,2.0,6.0,59,-99.99,,,-99.99,,2013-11-13 11:00:00,
2013-11-13 06:33:00,-999.0,-99.9,-100.00,North,-999,2.0,6.0,59,-99.99,,,-99.99,,2013-11-13 11:33:00,
2013-11-13 06:42:00,-999.0,-99.9,-100.00,North,-999,2.0,6.0,59,-99.99,,,-99.99,,2013-11-13 11:42:00,
2013-11-13 06:52:00,-999.0,-99.9,-100.00,North,-999,2.0,6.0,59,-99.99,,,-99.99,,2013-11-13 11:52:00,
2013-11-13 07:00:00,-999.0,-99.9,-100.00,North,-999,1.0,3.0,60,-99.99,,,-99.99,,2013-11-13 12:00:00,
2013-11-13 07:32:00,-999.0,-99.9,-100.00,North,-999,1.0,3.0,60,-99.99,,,-99.99,,2013-11-13 12:32:00,
2013-11-13 07:42:00,-999.0,-99.9,-100.00,North,-999,1.0,3.0,60,-99.99,,,-99.99,,2013-11-13 12:42:00,
2013-11-13 07:52:00,-999.0,-99.9,-100.00,North,-999,1.0,3.0,60,-99.99,,,-99.99,,2013-11-13 12:52:00,
2013-11-13 16:00:00,-999.0,-99.9,-100.00,North,-999,4.0,8.0,29,-99.99,,,-99.99,,2013-11-13 21:00:00,
2013-11-13 16:33:00,-999.0,-99.9,-100.00,North,-999,4.0,8.0,29,-99.99,,,-99.99,,2013-11-13 21:33:00,
2013-11-13 16:43:00,-999.0,-99.9,-100.00,North,-999,4.0,8.0,29,-99.99,,,-99.99,,2013-11-13 21:43:00,
2013-11-13 16:53:00,-999.0,-99.9,-100.00,North,-999,4.0,8.0,29,-99.99,,,-99.99,,2013-11-13 21:53:00,
2013-11-13 21:00:00,-999.0,-99.9,-100.00,North,-999,1.0,3.0,71,-99.99,,,-99.99,,2013-11-14 02:00:00,
2013-11-13 21:32:00,-999.0,-99.9,-100.00,North,-999,1.0,3.0,71,-99.99,,,-99.99,,2013-11-14 02:32:00,
2013-11-13 21:42:00,-999.0,-99.9,-100.00,North,-999,1.0,3.0,71,-99.99,,,-99.99,,2013-11-14 02:42:00,
2013-11-13 21:53:00,-999.0,-99.9,-100.00,North,-999,1.0,3.0,71,-99.99,,,-99.99,,2013-11-14 02:53:00,